Ellsworth AFB, SD

7:14 PM MST on December 15, 2019 (GMT -0700)
Ellsworth Air Force Base

Weather History for KRCA - October, 2019

Change the Weather History Date:

Monday, October 14, 2019

  Actual Average Record
Temperature  
Mean Temperature 49 °F -  
Max Temperature 66 °F 60 °F 82 °F (2016)
Min Temperature 33 °F 36 °F 17 °F (2018)
Degree Days  
Heating Degree Days 16    
Moisture  
Dew Point 31 °F    
Average Humidity 53    
Maximum Humidity 89    
Minimum Humidity 28    
Precipitation  
Precipitation 0.00 in - - ()
Sea Level Pressure  
Sea Level Pressure 29.82 in    
Wind  
Wind Speed 9 mph (NNW)    
Max Wind Speed 26 mph    
Max Gust Speed 40 mph    
Visibility 6 miles    
Events      
Averages and records for this station are not official NWS values.
T = Trace of Precipitation, MM = Missing Value Source: NWS Daily Summary

Daily Weather History Graph

Daily Weather History Graph

Search for Another Location

Airport or City:

Astronomy

Oct. 14, 2019 Rise Set
Actual Time 7:05 AM MDT 6:10 PM MDT
Civil Twilight 6:36 AM MDT 6:39 PM MDT
Nautical Twilight 6:03 AM MDT 7:12 PM MDT
Astronomical Twilight 5:29 AM MDT 7:46 PM MDT
Moon 7:01 PM MDT (10/14) 7:39 AM MDT (10/14)
Length of Visible Light 12h 02m
Length of Day
11h 04m
Full, 99% of the Moon is Illuminated
Oct 14
Full
Oct 21
Last Quarter
Oct 27
New
Nov 4
First Quarter
Nov 12
Full

Hourly Weather History & Observations

Time (MDT) Temp. Windchill Dew Point Humidity Pressure Visibility Wind Dir Wind Speed Gust Speed Precip Events Conditions
12:56 AM 40.3 °F 37.1 °F 22.1 °F 48% 29.89 in 10.0 mi South 4.6 mph - N/A   Clear
1:56 AM 37.9 °F 33.5 °F 23.2 °F 55% 29.87 in 10.0 mi SE 5.8 mph - N/A   Clear
2:56 AM 37.0 °F 34.5 °F 23.2 °F 57% 29.84 in 10.0 mi South 3.5 mph - N/A   Clear
3:56 AM 36.5 °F 31.0 °F 23.9 °F 60% 29.82 in 10.0 mi SE 6.9 mph - N/A   Clear
4:56 AM 33.6 °F 28.4 °F 24.6 °F 70% 29.81 in 10.0 mi South 5.8 mph - N/A   Clear
5:56 AM 33.4 °F 29.1 °F 25.3 °F 72% 29.81 in 10.0 mi SSW 4.6 mph - N/A   Clear
6:56 AM 33.3 °F 30.2 °F 30.0 °F 88% 29.81 in 10.0 mi NW 3.5 mph - N/A   Clear
7:56 AM 34.2 °F - 31.3 °F 89% 29.83 in 10.0 mi Calm Calm - N/A   Clear
8:56 AM 38.8 °F 36.5 °F 29.8 °F 70% 29.80 in 10.0 mi WNW 3.5 mph - N/A   Partly Cloudy
9:36 AM 44.6 °F 39.7 °F 30.2 °F 57% 29.79 in 1.6 mi NNW 9.2 mph - N/A   Haze
9:41 AM 44.6 °F 40.2 °F 30.2 °F 57% 29.79 in 1.4 mi NW 8.1 mph - N/A   Haze
9:46 AM 44.6 °F 40.7 °F 30.2 °F 57% 29.79 in 0.9 mi NW 6.9 mph - N/A   Haze
9:56 AM 46.2 °F 43.3 °F 30.0 °F 53% 29.78 in 1.2 mi NNW 5.8 mph - N/A   Haze
10:01 AM 46.4 °F 44.3 °F 30.2 °F 53% 29.79 in 3.0 mi North 4.6 mph - N/A   Haze
10:36 AM 48.2 °F - 32.0 °F 54% 29.79 in 2.8 mi NNW 10.4 mph - N/A   Haze
10:41 AM 48.2 °F - 32.0 °F 54% 29.79 in 0.9 mi NW 8.1 mph - N/A   Haze
10:46 AM 48.2 °F - 32.0 °F 54% 29.78 in 1.0 mi NNW 8.1 mph - N/A   Haze
10:51 AM 50.0 °F - 30.2 °F 47% 29.77 in 1.2 mi NNW 12.7 mph - N/A   Haze
10:56 AM 50.0 °F - 31.6 °F 49% 29.77 in 1.0 mi NNW 9.2 mph - N/A   Haze
11:01 AM 50.0 °F - 32.0 °F 50% 29.77 in 0.9 mi NNW 5.8 mph - N/A   Haze
11:06 AM 51.8 °F - 32.0 °F 47% 29.77 in 1.1 mi NNW 6.9 mph - N/A   Haze
11:11 AM 51.8 °F - 32.0 °F 47% 29.77 in 1.8 mi NNW 10.4 mph - N/A   Haze
11:16 AM 53.6 °F - 30.2 °F 41% 29.75 in 3.0 mi North 10.4 mph - N/A   Haze
11:26 AM 53.6 °F - 30.2 °F 41% 29.75 in 2.5 mi NNW 9.2 mph - N/A   Haze
11:31 AM 53.6 °F - 32.0 °F 44% 29.75 in 1.2 mi NNW 9.2 mph - N/A   Haze
11:36 AM 53.6 °F - 32.0 °F 44% 29.75 in 1.2 mi NNW 6.9 mph - N/A   Haze
11:46 AM 53.6 °F - 33.8 °F 47% 29.76 in 0.9 mi NNW 10.4 mph - N/A   Haze
11:51 AM 53.6 °F - 32.0 °F 44% 29.76 in 1.2 mi North 11.5 mph - N/A   Haze
11:56 AM 54.5 °F - 32.5 °F 43% 29.75 in 2.5 mi North 9.2 mph - N/A   Haze
12:01 PM 55.4 °F - 32.0 °F 41% 29.75 in 7.0 mi North 9.2 mph - N/A   Clear
12:56 PM 59.4 °F - 33.1 °F 37% 29.73 in 10.0 mi North 15.0 mph - N/A   Clear
2:56 PM 65.5 °F - 31.5 °F 28% 29.73 in 10.0 mi NNW 21.9 mph 29.9 mph N/A   Clear
3:56 PM 63.9 °F - 33.4 °F 32% 29.77 in 10.0 mi NNW 25.3 mph 38.0 mph N/A   Clear
4:20 PM 62.6 °F - 33.8 °F 34% 29.79 in 10.0 mi NNW 26.5 mph 40.3 mph N/A   Clear
4:56 PM 61.5 °F - 33.6 °F 35% 29.81 in 10.0 mi NNW 26.5 mph 35.7 mph N/A   Clear
5:56 PM 56.8 °F - 36.3 °F 46% 29.87 in 10.0 mi NNW 25.3 mph 35.7 mph N/A   Clear
6:56 PM 52.0 °F - 36.9 °F 56% 29.93 in 10.0 mi NNW 18.4 mph - N/A   Clear
7:56 PM 49.1 °F - 36.7 °F 62% 29.96 in 10.0 mi NW 19.6 mph - N/A   Partly Cloudy
8:56 PM 49.6 °F - 33.6 °F 54% 29.98 in 10.0 mi NW 19.6 mph - N/A   Overcast
9:56 PM 48.4 °F - 33.4 °F 56% 30.01 in 10.0 mi NW 19.6 mph 27.6 mph N/A   Overcast
10:56 PM 45.5 °F 38.1 °F 33.6 °F 63% 30.04 in 10.0 mi NW 18.4 mph - N/A   Clear
11:56 PM 42.6 °F 34.6 °F 34.5 °F 73% 30.09 in 10.0 mi NNW 17.3 mph 26.5 mph N/A   Clear